Location: Brompton
(51.4000°N, 0.5333°E)
Time: 12:01:53
(UTC+00:00)

Cosmos 1898 Rocket - Pass Details

Date: 29 September 2021
Orbit: 752 x 784 km, 74.0° (Epoch: 17 October)

Event Time Altitude Azimuth Distance (km) Brightness Sun altitude
Rises 20:33:08 0° 215° (SW) 3,208 6.8 -26.7°
Reaches altitude 10° 20:35:31 10° 219° (SW) 2,291 6.0 -27.0°
Maximum altitude 20:40:39 59° 299° (WNW) 888 4.0 -27.6°
Drops below altitude 10° 20:45:52 10° 19° (NNE) 2,327 6.2 -28.3°
Sets 20:48:18 0° 24° (NNE) 3,263 6.9 -28.6°
